Date,TemperatureHighF,TemperatureAvgF,TemperatureLowF,DewpointHighF,DewpointAvgF,DewpointLowF,HumidityHigh,HumidityAvg,HumidityLow,PressureMaxIn,PressureMinIn,WindSpeedMaxMPH,WindSpeedAvgMPH,GustSpeedMaxMPH,PrecipitationSumIn
2013-12-1,70,48,38,34,28,14,75,52,16,30.24,30.17,17,5,25,0.00
2013-12-2,73,48,30,32,22,15,71,42,15,30.19,29.98,10,2,15,0.00
2013-12-3,61,44,25,49,36,19,100,77,23,29.98,29.78,13,5,22,0.01
2013-12-4,50,40,26,45,34,23,100,82,55,29.94,29.77,11,4,21,0.02
2013-12-5,49,36,23,36,29,20,100,80,44,30.05,29.91,8,3,14,0.00
2013-12-6,48,33,21,35,28,18,93,82,56,30.11,30.04,8,2,14,0.00
2013-12-7,43,35,20,42,34,17,100,93,69,30.06,29.95,24,7,29,0.14
2013-12-8,48,36,26,40,33,23,100,87,61,30.12,30.03,8,3,14,0.00
2013-12-9,45,37,25,22,6,-1,86,30,21,30.24,30.08,32,17,45,0.21
2013-12-10,58,44,35,20,9,0,27,23,21,30.20,30.08,22,11,34,0.01
2013-12-11,62,50,33,20,14,2,39,24,20,30.19,30.09,18,7,30,0.00
2013-12-12,62,44,26,27,18,5,73,39,20,30.21,30.13,9,3,13,0.00
2013-12-13,61,40,19,34,18,12,81,47,21,30.21,30.12,17,3,25,0.00
2013-12-14,65,54,41,21,17,10,36,23,18,30.28,30.18,28,13,36,0.01
2013-12-15,70,62,53,22,20,15,23,20,15,30.26,30.16,28,19,42,0.00
2013-12-16,78,67,60,27,22,20,22,19,14,30.22,30.17,21,10,32,0.00
2013-12-17,77,62,51,28,22,18,29,21,14,30.23,30.10,17,6,24,0.00
2013-12-18,70,52,32,42,28,18,100,44,18,30.10,29.88,10,3,13,0.00
2013-12-19,47,40,30,45,39,29,100,98,86,29.88,29.71,8,3,111,0.12
2013-12-20,51,36,25,43,32,25,100,88,60,29.94,29.75,9,1,11,0.00
2013-12-21,53,37,24,48,33,24,100,87,57,30.06,29.90,10,2,14,0.06
2013-12-22,63,42,23,42,29,21,96,67,29,30.27,30.06,8,2,11,0.00
2013-12-23,63,54,41,30,28,25,63,38,26,30.31,30.23,30,12,42,0.01
2013-12-24,74,60,47,32,27,22,48,29,16,30.23,30.16,15,5,20,0.00
2013-12-25,67,59,48,27,20,14,45,22,17,30.25,30.17,29,16,37,0.00
2013-12-26,66,58,50,21,18,14,23,21,18,30.22,30.14,31,16,39,0.00
2013-12-27,71,55,38,22,15,7,29,21,15,30.22,30.12,23,7,30,0.00
2013-12-28,68,46,25,25,15,3,52,30,17,30.13,29.98,11,2,14,0.00
2013-12-29,67,46,20,23,12,-1,56,28,17,30.18,30.02,21,4,25,0.00
2013-12-30,70,46,28,22,9,-4,29,22,15,30.26,30.17,8,2,11,0.00
2013-12-31,70,44,24,22,8,-6,37,24,16,30.23,30.12,8,2,11,0.00